Location: Aufkirchen
(47.9603°N, 11.3653°E)
Time: 14:50:32
(UTC+01:00)

Transit 2A Rocket - Pass Details

Date: 14 December 2020
Orbit: 592 x 910 km, 66.7° (Epoch: 21 January)

Event Time Altitude Azimuth Distance (km) Brightness Sun altitude
Rises 22:13:48 0° 204° (SSW) 3,481 - -56.3°
Reaches altitude 10° 22:16:23 10° 202° (SSW) 2,516 - -56.6°
Maximum altitude 22:22:10 67° 121° (ESE) 897 - -57.4°
Drops below altitude 10° 22:27:32 10° 39° (NE) 2,341 - -58.1°
Sets 22:29:51 0° 37° (NE) 3,222 - -58.3°
